[[{"header":{"parameterUnit":"m.s-1","parameterCategory":1,"la1":30.2991,"la2":30.254,"lo1":-89.0895,"lo2":-89.0444,"dy":0.0017,"dx":0.0017,"nx":28,"ny":28,"refTime":"2025-11-10T03:00:00:Z","depth":0,"parameterNumber":2,"parameterNumberName":"U-component_of_WINDS"},"data":[0,0,0,0,0,0,0,0,0,0,0,0,0,0,0,0,0,0,0,0,0,0,0,0,0,0,0,0,0,0,0,0,0,0,0,0,0,0,0,0,0,0,0,0,0,0,0,0,0,0,0,0,0,0,0,0,0,0,2.8537,2.8537,0,2.8573,2.8573,2.8574,2.8562,2.8561,2.856,2.856,2.8596,2.8598,2.8599,0,0,0,0,0,0,0,0,0,0,0,0,0,2.8459,2.846,2.8537,2.8537,2.8538,2.8573,2.8573,2.8574,2.8562,2.8561,2.856,2.8559,2.8595,2.8597,2.8599,0,0,0,0,0,0,0,0,0,0,0,0,0,2.8494,2.8461,2.8537,2.8536,2.8536,2.8573,2.8573,2.8574,2.8562,2.8561,2.856,2.8559,2.8595,2.8597,2.86,2.8639,0,0,2.8608,2.8609,0,0,0,0,0,0,0,0,2.8492,2.8496,2.8536,2.8536,2.8537,2.8562,2.8559,2.8596,2.8563,2.8552,2.856,2.8558,2.8586,2.8589,2.8598,2.864,2.8642,2.8608,2.8609,2.861,2.8611,0,0,0,0,0,0,0,2.8489,2.8495,2.8551,2.8536,2.8537,2.8534,2.8538,2.8566,2.8575,2.8553,2.8553,2.8557,2.8586,2.8596,2.8599,2.8643,2.8608,2.861,2.8611,2.8612,2.8721,2.8723,0,0,0,0,0,0,2.8486,2.8493,2.855,2.8552,2.8511,2.8537,2.8541,2.8555,2.8575,2.8577,2.8558,2.8556,2.8592,2.8596,2.86,2.8648,2.861,2.8613,2.8614,2.872,2.8722,2.8723,0,0,0,0,0,0,2.8485,2.8492,2.8548,2.8522,2.8529,2.8539,2.8555,2.8556,2.8566,2.8578,2.858,2.8567,2.8591,2.8596,2.863,2.8649,2.8614,2.8616,2.8718,2.872,2.8722,2.8744,0,0,0,0,0,0,2.8483,2.8491,2.8505,2.8523,2.8531,2.8577,2.8556,2.8558,2.8571,2.8569,2.8587,2.8589,2.8591,2.8626,2.8632,2.8652,2.8618,2.8717,2.8719,2.8722,2.8742,2.8747,2.8751,0,0,0,0,0,2.848,2.851,2.8506,2.8513,2.8549,2.8578,2.8583,2.8585,2.8572,2.8587,2.8596,2.8588,2.8647,2.863,2.8637,2.8657,2.8715,2.8719,2.8722,2.874,2.8746,2.8751,0,0,0,0,0,0,2.8493,2.8512,2.8508,2.8544,2.856,2.8576,2.8595,2.8591,2.861,2.8608,2.8609,2.8613,2.8648,2.8656,2.8637,2.8698,2.8679,2.8684,2.8691,2.8697,2.8701,2.8698,2.862,0,0,0,0,0,2.8501,2.8523,2.8538,2.8568,2.8576,2.8585,2.8597,2.8598,2.8614,2.862,2.8631,2.8647,2.8669,2.8683,2.8704,2.8744,2.8748,2.8762,2.8766,2.877,2.8774,2.8797,2.8804,2.8733,2.8733,2.8733,0,0,2.8516,2.8528,2.8542,2.8571,2.8583,2.8607,2.859,2.8615,2.8633,2.8624,2.8656,2.8665,2.8683,2.872,2.8737,2.8728,2.8795,2.8774,2.8777,2.8779,2.8801,2.8808,2.8814,2.8735,2.8735,2.8735,0,0,2.8555,2.8567,2.8594,2.8607,2.8626,2.8632,2.8639,2.8657,2.8662,2.8695,2.869,2.8711,2.8749,2.8762,2.8774,2.8822,2.8817,2.8829,2.8853,2.8876,2.8881,2.8886,2.8904,2.8911,2.8833,2.8833,2.8833,0,2.8571,2.8606,2.8609,2.8635,2.8648,2.8643,2.8672,2.8684,2.8709,2.8719,2.8709,2.8758,2.8769,2.8811,2.8823,2.8832,2.8841,2.8827,2.888,2.8885,2.889,2.8907,2.8914,2.8835,2.8834,2.8834,2.8834,0,2.8625,2.865,2.867,2.8695,2.8711,2.8738,2.8746,2.8762,2.8762,2.8769,2.8804,2.8818,2.8843,2.8853,2.8852,2.8895,2.8889,2.888,2.8861,2.8898,2.8914,2.8921,2.8837,2.8836,2.8836,2.8835,0,0,2.8672,2.87,2.8708,2.872,2.8742,2.8761,2.8789,2.8814,2.8829,2.8847,2.8871,2.8904,2.8897,2.891,2.8912,2.8932,2.8971,2.8921,2.8921,2.893,2.902,2.9027,2.9034,2.8968,2.8969,2.897,2.9019,0,2.8713,2.8762,2.8767,2.8811,2.8835,2.8831,2.8856,2.8873,2.8881,2.8903,2.8912,2.8936,2.8923,2.8932,2.8952,2.8962,2.8989,2.8958,2.899,2.8992,2.8986,2.9042,2.9049,2.9094,2.9025,2.9026,2.9027,0,2.8767,2.8789,2.8835,2.8856,2.8866,2.8888,2.8913,2.8933,2.8953,2.8958,2.8975,2.8974,2.9004,2.8986,2.9028,2.9007,2.9021,2.9028,2.903,2.9032,2.9011,2.9047,2.9108,2.9115,2.9037,2.9036,2.9035,0,2.8798,2.8838,2.8871,2.8882,2.8907,2.8923,2.8934,2.8953,2.8968,2.899,2.9,2.9025,2.9039,2.9058,2.9065,2.9051,2.9107,2.9089,2.9113,2.9113,2.9124,2.9123,2.9188,2.9133,2.9133,2.9133,2.9133,0,2.8843,2.8872,2.8885,2.8906,2.8939,2.8945,2.8978,2.8988,2.9005,2.9029,2.9028,2.905,2.9057,2.9081,2.9087,2.9122,2.9128,2.9133,2.9134,2.9133,2.9132,2.9141,2.9138,2.9135,2.9134,2.9134,2.9134,0,2.8882,2.8892,2.8928,2.895,2.8957,2.898,2.8999,2.9019,2.9028,2.9058,2.9065,2.9079,2.9108,2.9117,2.915,2.9154,2.9195,2.9193,2.9188,2.9189,2.9212,2.921,2.9285,2.9296,2.9234,2.9234,2.9235,0,2.891,2.8932,2.8957,2.8973,2.8985,2.9011,2.9027,2.9035,2.9052,2.9078,2.9095,2.9124,2.9146,2.9192,2.9205,2.9232,2.9231,2.9256,2.9234,2.9233,2.9232,2.923,2.9233,2.9259,2.926,2.926,2.9261,0,2.8959,2.8964,2.8987,2.9014,2.9034,2.9055,2.9075,2.9088,2.9099,2.9118,2.9148,2.9166,2.9201,2.9229,2.9257,2.9269,2.9267,2.9268,2.9275,2.9273,2.927,2.9273,2.9199,2.9265,2.9265,2.9265,2.9264,2.9264,2.8994,2.9014,2.9036,2.9063,2.9079,2.9099,2.912,2.9132,2.9157,2.9186,2.919,2.9222,2.9243,2.928,2.9294,2.932,2.9313,2.9323,2.9325,2.9328,2.933,2.9266,2.9325,2.9325,2.9325,2.9325,2.9324,0,2.9044,2.9058,2.9083,2.9112,2.9134,2.9131,2.9154,2.9172,2.9201,2.9221,2.9244,2.9279,2.9307,2.9324,2.9353,2.937,2.937,2.9377,2.9376,2.9379,2.9334,2.9325,2.9377,2.9377,2.9377,2.9377,2.9377,2.9377,2.9072,2.9107,2.9115,2.9159,2.9173,2.9204,2.9218,2.9236,2.9253,2.9292,2.9316,2.9327,2.9347,2.9377,2.9403,2.9408,2.9418,2.9427,2.943,2.9388,2.9382,2.9377,2.9369,2.9429,2.9429,2.9473,2.9474,2.9474]},{"header":{"parameterUnit":"m.s-1","parameterCategory":1,"la1":30.2991,"la2":30.254,"lo1":-89.0895,"lo2":-89.0444,"dy":0.0017,"dx":0.0017,"nx":28,"ny":28,"refTime":"2025-11-10T03:00:00:Z","depth":0,"parameterNumber":3,"parameterNumberName":"V-component_of_WINDS"},"data":[0,0,0,0,0,0,0,0,0,0,0,0,0,0,0,0,0,0,0,0,0,0,0,0,0,0,0,0,0,0,0,0,0,0,0,0,0,0,0,0,0,0,0,0,0,0,0,0,0,0,0,0,0,0,0,0,0,0,-7.3059,-7.3059,0,-7.3141,-7.3142,-7.3143,-7.3115,-7.3114,-7.3112,-7.311,-7.3188,-7.3191,-7.3195,0,0,0,0,0,0,0,0,0,0,0,0,0,-7.2871,-7.2875,-7.3058,-7.306,-7.3061,-7.3141,-7.3142,-7.3143,-7.3116,-7.3113,-7.3111,-7.3109,-7.3186,-7.3191,-7.3195,0,0,0,0,0,0,0,0,0,0,0,0,0,-7.2953,-7.2876,-7.3058,-7.3057,-7.3057,-7.3141,-7.3142,-7.3144,-7.3116,-7.3113,-7.3111,-7.3108,-7.3185,-7.319,-7.3196,-7.3284,0,0,-7.3213,-7.3215,0,0,0,0,0,0,0,0,-7.2949,-7.296,-7.3056,-7.3057,-7.3058,-7.3116,-7.3105,-7.3191,-7.3117,-7.3094,-7.311,-7.3107,-7.3165,-7.3172,-7.3194,-7.3288,-7.3291,-7.3214,-7.3217,-7.3219,-7.3221,0,0,0,0,0,0,0,-7.2943,-7.2956,-7.3091,-7.3057,-7.3058,-7.305,-7.3059,-7.3121,-7.3143,-7.3095,-7.3094,-7.3104,-7.3165,-7.3188,-7.3195,-7.3292,-7.3213,-7.3218,-7.3222,-7.3224,-7.3466,-7.3469,0,0,0,0,0,0,-7.2938,-7.2952,-7.3088,-7.3093,-7.2996,-7.3056,-7.3065,-7.3099,-7.3143,-7.3147,-7.3106,-7.3103,-7.318,-7.3189,-7.3198,-7.3306,-7.3219,-7.3225,-7.3228,-7.3463,-7.3466,-7.347,0,0,0,0,0,0,-7.2934,-7.295,-7.3085,-7.3022,-7.3039,-7.3062,-7.31,-7.3103,-7.3126,-7.3151,-7.3154,-7.3126,-7.3178,-7.319,-7.3264,-7.3308,-7.3227,-7.3232,-7.3459,-7.3464,-7.3468,-7.3521,0,0,0,0,0,0,-7.2928,-7.2949,-7.2983,-7.3023,-7.3042,-7.3151,-7.3103,-7.3106,-7.3136,-7.3132,-7.317,-7.3174,-7.3177,-7.3256,-7.327,-7.3314,-7.3237,-7.3455,-7.3461,-7.3467,-7.3515,-7.3527,-7.3537,0,0,0,0,0,-7.2922,-7.2993,-7.2985,-7.3002,-7.3086,-7.3154,-7.3165,-7.3169,-7.314,-7.3174,-7.3191,-7.3173,-7.3301,-7.3264,-7.3279,-7.3326,-7.3452,-7.3459,-7.3466,-7.3511,-7.3525,-7.3536,0,0,0,0,0,0,-7.2953,-7.2998,-7.299,-7.3076,-7.3112,-7.3149,-7.3192,-7.3183,-7.3225,-7.3219,-7.3221,-7.323,-7.3307,-7.3323,-7.3281,-7.3415,-7.3372,-7.3383,-7.3401,-7.3414,-7.3425,-7.3419,-7.3241,0,0,0,0,0,-7.2971,-7.3024,-7.3059,-7.3132,-7.3151,-7.3169,-7.3198,-7.3199,-7.3235,-7.3249,-7.3271,-7.3305,-7.3353,-7.3385,-7.343,-7.3518,-7.3526,-7.3558,-7.3569,-7.3577,-7.3586,-7.3636,-7.365,-7.3492,-7.3492,-7.3492,0,0,-7.3006,-7.3037,-7.307,-7.3139,-7.3167,-7.3221,-7.3181,-7.3239,-7.3279,-7.3257,-7.3329,-7.3347,-7.3385,-7.3468,-7.3505,-7.3484,-7.3632,-7.3586,-7.3593,-7.3597,-7.3644,-7.3659,-7.3672,-7.3497,-7.3496,-7.3495,0,0,-7.3099,-7.3128,-7.3193,-7.3223,-7.3267,-7.3279,-7.3295,-7.3335,-7.3347,-7.3421,-7.3406,-7.3453,-7.3535,-7.3564,-7.3589,-7.3698,-7.3683,-7.3712,-7.3767,-7.3816,-7.3828,-7.3839,-7.3879,-7.3893,-7.3721,-7.3721,-7.3721,0,-7.3136,-7.3219,-7.3226,-7.3287,-7.3318,-7.3305,-7.3371,-7.3399,-7.3454,-7.3475,-7.3452,-7.3559,-7.3583,-7.3673,-7.37,-7.372,-7.3738,-7.3707,-7.3826,-7.3837,-7.3848,-7.3885,-7.39,-7.3724,-7.3724,-7.3724,-7.3723,0,-7.3264,-7.3322,-7.3369,-7.3427,-7.3464,-7.3526,-7.3542,-7.3578,-7.3577,-7.3592,-7.3667,-7.3697,-7.375,-7.3771,-7.3769,-7.3862,-7.3848,-7.3826,-7.3783,-7.3866,-7.3902,-7.3916,-7.3729,-7.3728,-7.3727,-7.3726,0,0,-7.3375,-7.3441,-7.3458,-7.3486,-7.3535,-7.3579,-7.3642,-7.3697,-7.3728,-7.3768,-7.382,-7.3893,-7.3874,-7.3903,-7.3904,-7.3946,-7.4032,-7.3919,-7.392,-7.394,-7.4138,-7.4154,-7.4171,-7.4023,-7.4026,-7.4028,-7.4135,0,-7.3472,-7.3585,-7.3596,-7.3696,-7.3751,-7.3741,-7.3796,-7.3832,-7.3848,-7.3895,-7.3912,-7.3964,-7.3935,-7.3952,-7.3994,-7.4013,-7.4072,-7.4005,-7.4071,-7.4073,-7.4062,-7.4189,-7.4206,-7.4305,-7.4149,-7.4151,-7.4153,0,-7.36,-7.3648,-7.3756,-7.3801,-7.3824,-7.3874,-7.3926,-7.3972,-7.4013,-7.4022,-7.4057,-7.4053,-7.4117,-7.4074,-7.4162,-7.4116,-7.4144,-7.4158,-7.4162,-7.4167,-7.4118,-7.4198,-7.4336,-7.4352,-7.4174,-7.4173,-7.4171,0,-7.3671,-7.3763,-7.384,-7.3864,-7.3918,-7.3954,-7.3978,-7.4017,-7.405,-7.4096,-7.4118,-7.4169,-7.4197,-7.4236,-7.4246,-7.4213,-7.4335,-7.4291,-7.4343,-7.4343,-7.4368,-7.4366,-7.4513,-7.4387,-7.4386,-7.4386,-7.4386,0,-7.3779,-7.3845,-7.3873,-7.392,-7.3995,-7.4006,-7.4079,-7.41,-7.4136,-7.4186,-7.418,-7.4227,-7.4238,-7.4287,-7.4296,-7.4368,-7.438,-7.4389,-7.439,-7.439,-7.4389,-7.4407,-7.44,-7.439,-7.4389,-7.4388,-7.4388,0,-7.387,-7.3892,-7.3975,-7.4023,-7.4036,-7.4089,-7.4128,-7.4174,-7.4191,-7.4255,-7.4271,-7.4297,-7.4355,-7.437,-7.4437,-7.4443,-7.4529,-7.4524,-7.4516,-7.4516,-7.4567,-7.4563,-7.473,-7.4753,-7.4612,-7.4613,-7.4615,0,-7.3937,-7.3988,-7.4043,-7.4078,-7.4105,-7.4161,-7.4197,-7.421,-7.4247,-7.4301,-7.4339,-7.4398,-7.4445,-7.4538,-7.4561,-7.4614,-7.461,-7.4665,-7.4617,-7.4616,-7.4611,-7.4608,-7.4614,-7.4674,-7.4675,-7.4676,-7.4677,0,-7.4053,-7.4063,-7.4116,-7.4174,-7.4218,-7.4263,-7.4306,-7.4335,-7.4355,-7.4396,-7.4458,-7.4495,-7.4567,-7.4625,-7.4679,-7.4702,-7.4693,-7.4693,-7.4708,-7.4707,-7.4701,-7.4706,-7.4541,-7.4688,-7.4687,-7.4687,-7.4686,-7.4686,-7.4135,-7.4181,-7.4228,-7.4288,-7.4323,-7.4365,-7.4411,-7.4436,-7.4489,-7.4551,-7.4555,-7.4622,-7.4664,-7.4736,-7.4763,-7.4814,-7.4797,-7.4819,-7.4824,-7.4829,-7.4834,-7.4694,-7.4824,-7.4824,-7.4824,-7.4823,-7.4823,0,-7.4251,-7.4282,-7.4338,-7.4401,-7.4449,-7.4441,-7.4489,-7.4529,-7.4589,-7.463,-7.4679,-7.475,-7.4807,-7.4837,-7.4894,-7.493,-7.4927,-7.4944,-7.4941,-7.4947,-7.4846,-7.4828,-7.4945,-7.4945,-7.4945,-7.4945,-7.4945,-7.4945,-7.4318,-7.4397,-7.4413,-7.451,-7.4539,-7.4608,-7.4636,-7.4675,-7.4709,-7.479,-7.4839,-7.486,-7.4897,-7.4957,-7.5009,-7.5016,-7.5037,-7.5056,-7.5061,-7.4966,-7.4954,-7.4942,-7.4925,-7.5061,-7.5061,-7.5158,-7.5159,-7.516]}]]